Погода в Песочном

Россия / Санкт-Петербург и Ленинградская область     60°07′26″N   30°09′37″E
темп.,
°C
ветер,
м/с
пор.,
м/с
влажн.,
%
обл.,
%
осадки,
мм/ч
давл.,
гПа
погр.,
м
5 августа, чт
чт500:00+12юз22785 0.0 101631
03:00+11юз228249 0.0 101630
06:00+13юз127778 0.0 101637
09:00+17юз115826 0.0 1017447
12:00+21ююз124150 0.0 10172065
15:00+19ссв214598 0.0 10161376
18:00+16всв256098 0.0 1016210
21:00+14св256999 0.0 1016129
6 августа, пт
пт600:00+12всв237859 0.0 101771
03:00+11ссв128253 0.0 101727
06:00+11св24895 0.0 101679
09:00+18св47575 0.0 1016648
12:00+20всв59445 0.0 10161966
15:00+21всв684361 0.0 10152292
18:00+18всв61152100 0.0 10151652
21:00+14всв51267100 0.0 1015956
7 августа, сб
сб700:00+13всв51279100 0.0 1014734
03:00+14всв51083100 0.0 1013910
06:00+14всв51286100 0.0 1012527
09:00+16всв6137899 0.1 1011678
12:00+15всв61394100 3.8 1010695
15:00+15в51295100 4.0 1010770
18:00+15всв51197100 1.9 1009632
21:00+15в4998100 5.1 1008451
8 августа, вс
вс800:00+15в3798100 0.6 1008430
03:00+15в1399100 0.7 1008148
06:00+15юв1199100 0.1 100878
09:00+17ю129696 0.1 1009228
12:00+18ссз228894 0.2 1010401
15:00+19св228574 0.7 1010420
18:00+17св239498 0.3 1011183
21:00+16св239761 0.3 101378
9 августа, пн
пн900:00+14всв229867 0.0 101463
03:00+14всв2297100 0.0 101463
06:00+14вюв129730 0.0 101448
09:00+18в238458 0.0 1014426
12:00+20в237088 0.0 1014609
15:00+23всв4458100 0.0 10141178
18:00+19всв477356 0.0 1013392
21:00+17всв41185100 0.0 1012362